Regional Weather Roundup
Issued by NWS Raleigh/Durham, NC

Home | Current Version | Previous Version | Text Only | Print | Product List | Glossary On
Versions: 1 2 3 4 5 6 7 8 9 10 11 12 13 14 15 16 17 18 19 20 21 22 23 24 25 26 27 28 29 30 31 32 33 34 35 36 37 38 39 40 41 42 43 44 45 46 47 48 49 50
162
ASUS42 KRAH 252210
RWRRAH
NORTH CAROLINA WEATHER ROUNDUP
NATIONAL WEATHER SERVICE RALEIGH NC
600 PM EDT MON JUL 25 2016

NOTE: "FAIR" INDICATES FEW OR NO CLOUDS BELOW 12,000 FEET WITH NO
SIGNIFICANT WEATHER AND/OR OBSTRUCTIONS TO VISIBILITY.

NCZ001-053-055-056-065-067-252300-
WESTERN NORTH CAROLINA

CITY           SKY/WX    TMP DP  RH WIND       PRES   REMARKS
ASHEVILLE      SUNNY     86  66  51 S5        30.08S
JEFFERSON      PTSUNNY   73  71  94 CALM      30.14F
MORGANTON      MOSUNNY   92  71  49 N5        30.03S HX  98
HICKORY        SUNNY     94  65  38 W9        29.98F HX  96
RUTHERFORDTON    N/A     92  71  50 CALM      29.99S HX  99
MOUNT AIRY     SUNNY     91  75  59 NW5       30.01S HX 101
BOONE          CLOUDY   N/A N/A N/A CALM      30.15F
$$

NCZ021-022-025-041-071-084-088-252300-
CENTRAL NORTH CAROLINA

CITY           SKY/WX    TMP DP  RH WIND       PRES   REMARKS
CHARLOTTE      MOSUNNY   96  68  39 S10       29.97S HX 101
GREENSBORO     PTSUNNY   95  69  42 W12       29.96S HX 100
WINSTON-SALEM  SUNNY     95  67  39 W9        29.97F HX  99
RALEIGH-DURHAM CLOUDY    88  73  61 NW6       29.95S HX  95
FORT BRAGG     SUNNY     93  71  48 SW9       29.96S HX 100
FAYETTEVILLE   SUNNY     95  72  47 S13       29.96F HX 103
BURLINGTON     MOSUNNY   95  73  48 SW7       29.94F HX 104
LAURINBURG     SUNNY     94  72  48 SW13      29.98S HX 102
$$

NCZ011-015-027-028-043-044-047-080-103-252300-
NORTHEASTERN NORTH CAROLINA

CITY           SKY/WX    TMP DP  RH WIND       PRES   REMARKS
ROCKY MT-WILSO SUNNY     92  76  59 S10       29.94F HX 104
GREENVILLE     SUNNY     95  75  52 SW6       29.97F HX 107
ELIZABETH CITY MOSUNNY   93  73  52 S12       29.93F HX 102
MANTEO           N/A     90  78  68 SW20      29.95F HX 103
CAPE HATTERAS  SUNNY     84  77  79 SW12      30.00S
$$

NCZ078-087-090-091-093-098-101-252300-
SOUTHEASTERN NORTH CAROLINA

CITY           SKY/WX    TMP DP  RH WIND       PRES   REMARKS
LUMBERTON      SUNNY     92  73  53 S9        29.97F HX 100
GOLDSBORO      MOSUNNY   95  71  46 S9        29.95S HX 102
KINSTON        SUNNY     95  72  46 SW10      29.97S HX 103
KENANSVILLE    NOT AVBL
NEW BERN       SUNNY     90  74  59 S13G20    29.99S HX  99
CHERRY POINT   MOSUNNY   88  73  61 S15       30.00S HX  95
BEAUFORT       SUNNY     86  77  74 SW22      30.00F HX  97
JACKSONVILLE   SUNNY     89  71  55 S12       29.99S HX  95
WILMINGTON     SUNNY     89  71  55 S14G20    30.00S HX  95
$$





USA.gov is the U.S. government's official web portal to all federal, state and local government web resources and services.